Regional Weather Roundup
Issued by NWS Pendleton, OR

Home | Current Version | Previous Version | Text Only | Print | Product List | Glossary On
Versions: 1 2 3 4 5 6 7 8 9 10 11 12 13 14 15 16 17 18 19 20 21 22 23 24 25 26 27 28 29 30 31 32 33 34 35 36 37 38 39 40 41 42 43 44 45 46 47 48 49 50
294
ASUS46 KPDT 300625
RWRPDT
PENDLETON REGIONAL WEATHER ROUNDUP
NATIONAL WEATHER SERVICE PENDLETON OREGON
1100 PM PDT MON MAY 29 2017

NOTE: FAIR INDICATES FEW OR NO CLOUDS BELOW 12,000 FEET WITH NO
SIGNIFICANT WEATHER AND/OR OBSTRUCTIONS TO VISIBILITY.

# INDICATES UNOFFICIAL STATION AND DATA

WAZ520-300710-
EAST SLOPES OF WASHINGTON CASCADES

CITY            SKY/WX      TMP DP  RH  WIND    PRES   REMARKS
#BULLFROG       N/A         64  53  67  CALM    N/A
#CLE ELUM HS    N/A         66  49  54  CALM    29.88R
#CLE ELUM LAKE  N/A         68  49  51  CALM    29.89S
#EASTON DOT     N/A         62  53  72  CALM    N/A
#ELK HTS DOT    N/A         67  67  100 SE2     N/A
#GLENWOOD       N/A         68  53  59  CALM    29.84R
#NELSON 3SW     N/A         61  49  65  CALM    30.02R
#NILE           N/A         59  50  72  CALM    29.15R
#TEANAWAY 4NE   N/A         64  52  65  CALM    N/A
#TROUT LAKE 1NE N/A         63  53  70  W1      29.84S
#TROUT LAKE 1E  N/A         61  52  72  CALM    29.96S
$$

WAZ521-300710-
SIMCOE HIGHLANDS

CITY            SKY/WX      TMP DP  RH  WIND    PRES   REMARKS
#BICKLETON HS   N/A         67  50  54  W5      29.96F
#CENTERVILLE 1SWN/A         73  49  43  CALM    29.75F
#GOLDENDALE 1NE N/A         73  32  22  N7      N/A
#GOLDENDALE 4W  N/A         74  20  13  E2      29.95S
#GOODNOE HILLS  N/A         81  43  26  S8      N/A
#LYLE 6NE       N/A         63  56  78  SE7     29.82R
#PITT 4SE       N/A         61  53  75  SW1     29.85R
$$

WAZ026-300710-
KITTITAS VALLEY

CITY            SKY/WX      TMP DP  RH  WIND    PRES   REMARKS
ELLENSBURG AP   MOCLDY      68  51  55  CALM    29.91S
6HR MIN TEMP:   66; 6HR MAX TEMP:   92;

YTC-OPS AREA    CLEAR       76  37  24  SW5     30.01S
6HR MIN TEMP:   75; 6HR MAX TEMP:   82;

#ELLENSBURG CWU N/A         69  52  55  CALM    29.78R
#ELLENSBURG 3NE N/A         65  53  65  CALM    28.00S
#KITTITAS 3S    N/A         59  53  80  CALM    29.84R
#MANASTASH RDG  N/A         73  73  100 S3      N/A
#ROCKY CYN DOT  N/A         67  51  56  CALM    N/A
#RYEGRASS DOT   N/A         73  46  38  SE2     N/A
#THORP 6N       N/A         70  47  44  CALM    29.85S
$$

WAZ027-300710-
YAKIMA VALLEY

CITY            SKY/WX      TMP DP  RH  WIND    PRES   REMARKS
SUNNYSIDE AP    PTCLDY      63  52  67  NE7     29.87F
YAKIMA AIRPORT  MOCLDY      76  51  42  N6      29.89S
6HR MIN TEMP:   74; 6HR MAX TEMP:   95;

YAKIMA-VAGABOND CLEAR       73  42  33  CALM    29.88S
6HR MIN TEMP:   73; 6HR MAX TEMP:   92;

#DONALD 2NE     N/A         77  17  10  NW2     28.73F
#GRANDVIEW      N/A         72  47  41  CALM    29.85S
#MABTON         N/A         70  52  53  CALM    29.86R
#MOXEE 2E       N/A         74  N/A N/A E3      29.90S
#NACHES 2SW     N/A         66  52  61  CALM    29.93S
#OUTLOOK DOT    N/A         75  48  38  N1      29.84F
#PARKER DOT     N/A         77  47  35  SE1     29.87F
#TERRACE HTS    N/A         74  48  40  CALM    29.79F
#TOPPENISH      N/A         75  50  41  CALM    29.75S
#I82 S UMTANUM RN/A         68  44  42  NE5     N/A
#UNION GAP DOT  N/A         78  46  32  N6      29.89F
#WEST VALLEY    N/A         72  52  49  CALM    29.80F
#W YAKIMA       N/A         75  49  40  CALM    29.82F
#WILEY CITY 3W  N/A         69  45  42  CALM    29.86F
#ZILLAH DOT     N/A         77  45  32  N2      N/A
$$

WAZ028-300710-
LOWER COLUMBIA BASIN...WASHINGTON

CITY            SKY/WX      TMP DP  RH  WIND    PRES   REMARKS
PASCO           CLEAR       67  58  73  N6      29.84R
6HR MIN TEMP:   67; 6HR MAX TEMP:   94;

PROSSER AWOS    N/A         68  50  53  N3      29.91R
RICHLAND AWOS   CLEAR       69  52  55  CALM    29.84R
#BENTON CITY    N/A         72  46  39  W1      29.73S
#CONNELL 5N     N/A         66  50  56  N1      29.82S
#CONNELL 5NW    N/A         67  51  56  CALM    29.77S
#ELTOPIA 6NW    N/A         72  52  49  CALM    28.84R
#KAHLOTUS       N/A         69  50  51  S1      29.82R
#KENNEWICK 3S   N/A         77  50  39  CALM    29.82R
#PATERSON       N/A         76  46  34  CALM    29.81S
#PROSSER DOT    N/A         69  50  51  CALM    29.88R
#SAGEMOOR 2W    N/A         73  52  48  N1      29.68R
#TOUCHET 2S     N/A         58  55  90  CALM    29.79R
#WEST PASCO     N/A         73  56  55  CALM    29.80S
$$

WAZ029-300710-
FOOTHILLS OF THE BLUES...WASHINGTON

CITY            SKY/WX      TMP DP  RH  WIND    PRES   REMARKS
WALLA WALLA AP  CLEAR       69  48  47  E12     29.87S
6HR MIN TEMP:   69; 6HR MAX TEMP:   93;

#CLYDE 6NW      N/A         63  48  58  CALM    29.80S
#DAYTON SCHOOL  N/A         64  43  46  VRB5    29.93S
#DELANEY DOT    N/A         60  50  69  CALM    29.89S
#LOWDEN 2SE     N/A         64  56  75  CALM    29.81R
#PLEASANT VIEW 1N/A         77  42  29  CALM    29.84S
#PRESCOTT       N/A         66  53  63  CALM    29.80S
#WHITMAN COLLEGEN/A         74  49  41  CALM    29.85S
#WAITSBURG 6SSE N/A         66  46  48  SE3     29.84F
#WAITSBURG 8N   N/A         68  N/A N/A W5      29.91F
#WALLA WALLA 5E N/A         68  48  49  NE1     N/A
#WALLA WALLA U  N/A         73  51  46  CALM    29.80S
#WHITMAN MISSIONN/A         64  56  75  CALM    29.82F
$$

WAZ030-300710-
BLUE MOUNTAINS...WASHINGTON

CITY            SKY/WX      TMP DP  RH  WIND    PRES   REMARKS
#DIXIE 5SE      N/A         73  37  27  N8      29.91S
$$

ORZ009-041-WAZ024-300710-
COLUMBIA RIVER GORGE

CITY            SKY/WX      TMP DP  RH  WIND    PRES   REMARKS
THE DALLES AP   CLOUDY      71  56  59  NW20G28 29.84R
6HR MIN TEMP:   71; 6HR MAX TEMP:   87; 6HR PCP:  TRACE;

#ARLINGTON AIRPON/A         78  47  34  W3      29.83F
#CELILO DOT     N/A         74  49  41  E3      N/A
#LYLE           N/A         69  58  68  W12     29.88R
#MARYHILL       N/A         78  45  31  N6      29.71
#MURDOCK        N/A         72  57  59  NW18G31 29.81R
#RUFUS DOT      N/A         80  49  34  SE8     N/A
#SMITHVILLE     N/A         72  56  57  NW20G28 29.77R

$$

ORZ510-300710-
NORTH CENTRAL OREGON

CITY            SKY/WX      TMP DP  RH  WIND    PRES   REMARKS
#ANTELOPE       N/A         63  50  62  CALM    29.68R
#CHENOWITH 1W   N/A         51  35  54  NW14    N/A
#COW CYN RST AREN/A         67  46  47  NE7     N/A
#DUFUR          N/A         67  54  63  CALM    29.81R
#DUFUR 9E       N/A         77  44  31  SE13    29.85F
#GRASS VALLEY 1SN/A         71  50  47  E1      29.97F
#KENT DOT       N/A         72  42  34  SE6     N/A
#MAUPIN SCHOOL  N/A         69  57  66  W2      29.94R
#MORO SCHOOL    N/A         73  53  49  CALM    30.01S
#SHANIKO 5WSW   N/A         66  42  42  N14     N/A
#SHANIKO 4NW    N/A         66  44  45  E13     30.03R
#TYGH VALLEY 2NEN/A         65  56  73  CALM    29.84S
#WAPANITIA AIRPON/A         63  54  72  W3      29.86F
#WASCO DOT      N/A         75  47  37  N6      N/A
#WASCO 5NE      N/A         72  49  44  CALM    29.82F
$$

ORZ511-300710-
CENTRAL OREGON

CITY            SKY/WX      TMP DP  RH  WIND    PRES   REMARKS
BEND AIRPORT    PTCLDY      64  45  50  NW7     29.96F
MADRAS AIRPORT  PTCLDY      55  45  69  W8      29.99F
PRINEVILLE AP   PTCLDY      64  46  52  S5      30.01R
REDMOND AIRPORT PTCLDY      67  44  43  NW9     30.00R
6HR MIN TEMP:   66; 6HR MAX TEMP:   88;

#ASHWOOD SCHOOL N/A         66  50  56  CALM    29.94S
#BEND 1SW       N/A         64  46  52  CALM    N/A
#BEND-AWBREY    N/A         66  46  48  N2      29.83F
#BEND-KIM LN    N/A         64  47  54  W2      29.79R
#CULVER         N/A         64  49  58  CALM    29.78S
#CULVER 8W      N/A         65  48  54  CALM    29.99F
#MADRAS 4S      N/A         61  15  16  CALM    N/A
#POWELL BUTTE   N/A         67  48  50  W5      29.98S
#PRINEVILLE     N/A         69  46  44  CALM    29.90R
#PRINEVILLE 3N  N/A         66  50  56  S1      29.84R
#WARM SPRINGS   N/A         67  52  59  CALM    29.75S

$$


ORZ509-300710-
EAST SLOPES OF OREGON CASCADES

CITY            SKY/WX      TMP DP  RH  WIND    PRES   REMARKS
SISTERS AWOS    N/A         66  46  48  CALM    30.01R
#CAMP SHERMAN   N/A         59  45  60  CALM    29.91R
#LA PINE 4SW    N/A         63  40  43  SW2     30.03F
#LA PINE 4NW    N/A         63  45  52  CALM    29.89S
#LAVA BUTTE DOT N/A         62  42  48  N1      N/A
#SISTERS 3N     N/A         61  43  51  CALM    30.03S
#SUNRIVER       N/A         64  44  48  E1      29.85F
#TUMALO 3W      N/A         66  44  45  NW7     29.71S
#WANOGA BUTTE D N/A         56  38  51  N7      N/A

$$

ORZ044-300710-
LOWER COLUMBIA BASIN...OREGON

CITY            SKY/WX      TMP DP  RH  WIND    PRES   REMARKS
HERMISTON       PTCLDY      74  53  48  W8      29.85R
6HR MIN TEMP:   67; 6HR MAX TEMP:   96;

#BOARDMAN SCHOOLN/A         78  49  36  SW2     29.83S
#BOARDMAN 8SW   N/A         71  52  51  SW6     29.83S
#ECHO 8SW       N/A         72  51  48  W2      29.88R
#I-84 EX 198 DOTN/A         71  52  51  NE14    N/A
#IONE SCHOOL    N/A         73  47  40  CALM    29.85S
#UMATILLA       N/A         73  50  44  CALM    29.75R
$$

ORZ507-300710-
NORTHERN FOOTHILLS OF THE BLUES

CITY            SKY/WX      TMP DP  RH  WIND    PRES   REMARKS
PENDLETON AIRPT PTCLDY      63  49  60  E9      29.88R
6HR MIN TEMP:   63; 6HR MAX TEMP:   89;

#ADAMS 3WNW     N/A         57  49  75  N1      29.82R
#ATHENA         N/A         59  47  64  CALM    29.85S
#CAYUSE         N/A         73  48  41  E7      29.79S
#HELIX SCHOOL   N/A         73  47  40  N1      29.82R
#HELIX 3N       N/A         68  45  44  NE8     29.88S
#HOLDMAN 5SE    N/A         68  50  53  CALM    29.88R
#HOLDMAN 6E     N/A         72  49  44  N5      29.62S
#M-F FERNDALE   N/A         67  49  52  CALM    29.83R
#M-F GROVE ELEM N/A         72  41  33  W2      29.84F
#M-FREEWATER 5SEN/A         71  46  41  NE6     29.87F
#PENDLETON DNTN N/A         66  46  48  CALM    29.86S
#PDT AQUATIC CTRN/A         65  44  46  CALM    29.87S
#PDT SUNRIDGE   N/A         61  50  67  CALM    29.89R
#PENDLETON 7NW  N/A         65  49  56  CALM    32.30S
#PILOT ROCK 1S  N/A         70  40  34  S2      29.91S
#PILOT ROCK     N/A         68  47  47  CALM    29.93R
#TUTUILLA       N/A         61  51  70  CALM    29.85R
#UMAPINE 2E     N/A         65  50  58  CALM    29.82R
#WESTON SCHOOL  N/A         69  38  32  CALM    29.84S

$$

ORZ508-300710-
SOUTHERN FOOTHILLS OF THE BLUES

CITY            SKY/WX      TMP DP  RH  WIND    PRES   REMARKS
LEXINGTON       MOCLDY      72  46  39  E6      29.97R
#AJAX           N/A         76  40  27  S7      30.11S
#CONDON 5W      N/A         67  44  43  SE25G37 30.05R
#FOSSIL SCHOOL  N/A         72  47  41  NE15G26 29.93F
#HEPPNER EOC    N/A         73  47  40  CALM    29.80R
#HEPPNER 4NE    N/A         70  47  44  CALM    29.85R
#LEXINGTON 2SE  N/A         70  49  47  CALM    29.91R
#MIKKALO        N/A         77  43  30  SE7     30.05S
#OLEX 4N        N/A         74  48  40  SW2     29.88S
#RUGGS 5NE      N/A         70  43  38  W13     30.17R
#RUGGS 2SW      N/A         70  47  44  NW6     29.86R

$$

ORZ502-503-300710-
BLUE MOUNTAINS

CITY            SKY/WX      TMP DP  RH  WIND    PRES   REMARKS
MEACHAM         CLEAR       56  43  62  CALM    30.04S
6HR MIN TEMP:   56; 6HR MAX TEMP:   82;

#BATTLE MTN DOT N/A         63  37  38  SE6     N/A
#GRANITE        N/A         47  36  65  CALM    29.85R
#GREENHORN 9SW  N/A         53  41  64  CALM    30.05R
#HARDMAN 10S    N/A         66  44  45  NW1     29.97R
#LADD CYN SMT   N/A         54  47  77  SE6     N/A
#LADD CREEK ODOTN/A         59  48  67  SW3     N/A
#LONG CREEK HS  N/A         54  36  50  CALM    N/A
#N POWDER DOT   N/A         59  48  67  NW1     N/A
#PIKES PEAK     N/A         76  33  21  N3      27.99S
#SUMMERVILLE 5NWN/A         62  48  60  W2      30.03S
#TOLLGATE       N/A         56  37  49  CALM    29.96S
#TROY SCHOOL    N/A         60  53  78  CALM    29.73R
#UKIAH          N/A         55  49  80  CALM    29.80R
#WESTON 4E      N/A         68  40  36  E6      29.79S
$$

ORZ505-300710-
JOHN DAY BASIN

CITY            SKY/WX      TMP DP  RH  WIND    PRES   REMARKS
JOHN DAY        CLEAR       65  35  33  CALM    30.04R
#ANTELOPE 9ESE  N/A         73  48  41  W2      N/A
#DAYVILLE SCHOOLN/A         77  40  26  W7      29.93R
#MITCHELL       N/A         65  51  60  CALM    30.16R
#MITCHELL 8NW   N/A         67  47  49  SW5     29.84F
#MONUMENT HS    N/A         77  44  31  CALM    29.91R
#MT. VERNON 5SE N/A         68  33  27  W5      30.00R
#SPRAY SCHOOL   N/A         75  N/A N/A CALM    N/A
$$

ORZ506-300710-
OCHOCO AND JOHN DAY HIGHLANDS

CITY            SKY/WX      TMP DP  RH  WIND    PRES   REMARKS
#HORSE RIDGE DO N/A         64  42  45  W6      N/A
#PAULINA ODOT   N/A         68  37  32  W1      N/A
#PINE MTN OBS   N/A         56  43  62  N3      N/A
#PRAIRIE CITY   N/A         59  42  53  CALM    30.16R
#SENECA         N/A         54  N/A N/A S1      N/A
#SENECA 9NW     N/A         48  36  63  CALM    29.88S
$$

ORZ049-300710-
GRANDE RONDE VALLEY

CITY            SKY/WX      TMP DP  RH  WIND    PRES   REMARKS
LA GRANDE       CLEAR       63  43  48  S6      29.98R
#COVE           N/A         65  47  52  NE5     30.01S
#COVE SCHOOL    N/A         64  44  48  CALM    30.00S
#COVE 6NW       N/A         63  48  58  CALM    29.86R
#ELGIN 3N       N/A         60  43  53  CALM    29.96S
#ELGIN 1E       N/A         61  49  65  CALM    N/A
#IMBLER SCHOOL  N/A         65  45  48  CALM    29.94S
#ISLAND CITY 4N N/A         60  55  84  CALM    29.97S
#LA GRANDE-LEFFEN/A         67  47  49  SW8     29.98S
#UNION 1S       N/A         68  43  40  CALM    29.85S
$$

ORZ050-300710-
WALLOWA COUNTY

CITY            SKY/WX      TMP DP  RH  WIND    PRES   REMARKS
JOSEPH AIRPORT  CLEAR       57  41  55  S9      30.08S
#ENTERPRISE HS  N/A         59  46  62  CALM    29.77R
#IMNAHA SCHOOL  N/A         64  50  60  N2      29.96R
#IMNAHA 10S     N/A         64  46  52  SW3     30.00R
#JOSEPH         N/A         61  42  50  S1      30.06F
#JOSEPH 3N      N/A         52  41  66  CALM    30.09S
#LOSTINE        N/A         65  42  43  W5      29.69S
#LOSTINE 3SE    N/A         60  45  58  S3      30.07S
#MT HOWARD 8000 N/A         56  39  53  CALM    30.31F
#PROMISE 1S     N/A         59  48  67  CALM    29.96F
#WALLOWA LAKE   N/A         61  39  44  SE3     30.12S
#WALLOWA SCHOOL N/A         60  48  64  CALM    29.98R



$$



USA.gov is the U.S. government's official web portal to all federal, state and local government web resources and services.